Time,TemperatureF,DewpointF,PressureIn,WindDirection,WindDirectionDegrees,WindSpeedMPH,WindSpeedGustMPH,Humidity,HourlyPrecipIn,Conditions,Clouds,dailyrainin,SoftwareType,DateUTC
2013-06-07 00:02:00,62.8,52.1,29.77,South,171,0.0,0.0,68,0.00,,---,0.00,VWS V13.00,2013-06-07 07:02:00,
2013-06-07 00:07:00,62.5,51.8,29.77,South,171,0.0,0.0,68,0.00,,---,0.00,VWS V13.00,2013-06-07 07:07:00,
2013-06-07 00:12:00,62.2,51.5,29.77,South,171,0.0,1.0,68,0.00,,---,0.00,VWS V13.00,2013-06-07 07:12:00,
2013-06-07 00:17:00,62.1,51.8,29.77,South,171,0.0,1.0,69,0.00,,---,0.00,VWS V13.00,2013-06-07 07:17:00,
2013-06-07 00:22:00,61.8,51.5,29.77,South,171,0.0,1.0,69,0.00,,---,0.00,VWS V13.00,2013-06-07 07:22:00,
2013-06-07 00:27:00,61.6,51.7,29.77,South,171,0.0,2.0,70,0.00,,---,0.00,VWS V13.00,2013-06-07 07:27:00,
2013-06-07 00:32:00,61.4,51.5,29.77,South,171,2.0,2.0,70,0.00,,---,0.00,VWS V13.00,2013-06-07 07:32:00,
2013-06-07 00:37:00,61.2,51.7,29.77,South,171,2.0,3.0,71,0.00,,---,0.00,VWS V13.00,2013-06-07 07:37:00,
2013-06-07 00:42:00,60.9,51.8,29.77,South,171,2.0,3.0,72,0.00,,---,0.00,VWS V13.00,2013-06-07 07:42:00,
2013-06-07 00:47:00,60.6,51.5,29.76,South,171,2.0,3.0,72,0.00,,---,0.00,VWS V13.00,2013-06-07 07:47:00,
2013-06-07 00:52:00,60.3,51.2,29.77,South,171,2.0,3.0,72,0.00,,---,0.00,VWS V13.00,2013-06-07 07:52:00,
2013-06-07 00:57:00,60.0,51.0,29.77,South,171,1.0,3.0,72,0.00,,---,0.00,VWS V13.00,2013-06-07 07:57:00,
2013-06-07 01:02:00,59.6,51.0,29.77,South,171,2.0,2.0,73,0.00,,---,0.00,VWS V13.00,2013-06-07 08:02:00,
2013-06-07 01:07:00,59.2,50.6,29.77,South,171,0.0,2.0,73,0.00,,---,0.00,VWS V13.00,2013-06-07 08:07:00,
2013-06-07 01:12:00,59.0,50.4,29.77,South,171,2.0,2.0,73,0.00,,---,0.00,VWS V13.00,2013-06-07 08:12:00,
2013-06-07 01:17:00,58.8,50.5,29.77,South,171,0.0,2.0,74,0.00,,---,0.00,VWS V13.00,2013-06-07 08:17:00,
2013-06-07 01:22:00,58.5,50.6,29.77,South,171,2.0,2.0,75,0.00,,---,0.00,VWS V13.00,2013-06-07 08:22:00,
2013-06-07 01:27:00,58.3,50.4,29.77,South,171,1.0,2.0,75,0.00,,---,0.00,VWS V13.00,2013-06-07 08:27:00,
2013-06-07 01:32:00,58.2,50.7,29.77,South,171,0.0,0.0,76,0.00,,---,0.00,VWS V13.00,2013-06-07 08:32:00,
2013-06-07 01:37:00,58.2,51.0,29.77,South,171,0.0,1.0,77,0.00,,---,0.00,VWS V13.00,2013-06-07 08:37:00,
2013-06-07 01:42:00,58.2,51.0,29.77,South,171,0.0,1.0,77,0.00,,---,0.00,VWS V13.00,2013-06-07 08:42:00,
2013-06-07 01:47:00,58.2,51.4,29.77,South,171,0.0,1.0,78,0.00,,---,0.00,VWS V13.00,2013-06-07 08:47:00,
2013-06-07 01:52:00,58.2,51.4,29.77,South,171,0.0,1.0,78,0.00,,---,0.00,VWS V13.00,2013-06-07 08:52:00,
2013-06-07 01:57:00,58.2,51.4,29.77,South,171,0.0,1.0,78,0.00,,---,0.00,VWS V13.00,2013-06-07 08:57:00,
2013-06-07 02:02:00,58.2,51.4,29.76,South,171,0.0,0.0,78,0.00,,---,0.00,VWS V13.00,2013-06-07 09:02:00,
2013-06-07 02:07:00,58.2,51.4,29.76,South,171,0.0,0.0,78,0.00,,---,0.00,VWS V13.00,2013-06-07 09:07:00,
2013-06-07 02:12:00,58.3,51.5,29.76,South,171,0.0,0.0,78,0.00,,---,0.00,VWS V13.00,2013-06-07 09:12:00,
2013-06-07 02:17:00,58.3,51.5,29.76,South,171,0.0,0.0,78,0.00,,---,0.00,VWS V13.00,2013-06-07 09:17:00,
2013-06-07 02:22:00,58.3,51.5,29.76,South,171,0.0,0.0,78,0.00,,---,0.00,VWS V13.00,2013-06-07 09:22:00,
2013-06-07 02:27:00,58.3,51.5,29.76,South,171,0.0,0.0,78,0.00,,---,0.00,VWS V13.00,2013-06-07 09:27:00,
2013-06-07 02:32:00,58.3,51.5,29.76,South,171,0.0,1.0,78,0.00,,---,0.00,VWS V13.00,2013-06-07 09:32:00,
2013-06-07 02:37:00,58.3,51.5,29.76,South,171,0.0,1.0,78,0.00,,---,0.00,VWS V13.00,2013-06-07 09:37:00,
2013-06-07 02:42:00,58.4,51.6,29.75,South,171,0.0,1.0,78,0.00,,---,0.00,VWS V13.00,2013-06-07 09:42:00,
2013-06-07 02:47:00,58.5,51.3,29.76,South,171,0.0,1.0,77,0.00,,---,0.00,VWS V13.00,2013-06-07 09:47:00,
2013-06-07 02:52:00,58.6,51.8,29.75,South,171,0.0,1.0,78,0.00,,---,0.00,VWS V13.00,2013-06-07 09:52:00,
2013-06-07 02:57:00,58.7,51.9,29.75,South,171,1.0,2.0,78,0.00,,---,0.00,VWS V13.00,2013-06-07 09:57:00,
2013-06-07 03:02:00,58.7,51.9,29.75,SSE,153,0.0,1.0,78,0.00,,---,0.00,VWS V13.00,2013-06-07 10:02:00,
2013-06-07 03:07:00,58.9,52.1,29.75,SSE,152,0.0,1.0,78,0.00,,---,0.00,VWS V13.00,2013-06-07 10:07:00,
2013-06-07 03:12:00,59.0,51.8,29.75,SSE,152,0.0,2.0,77,0.00,,---,0.00,VWS V13.00,2013-06-07 10:12:00,
2013-06-07 03:17:00,59.0,51.8,29.75,SSE,153,0.0,2.0,77,0.00,,---,0.00,VWS V13.00,2013-06-07 10:17:00,
2013-06-07 03:22:00,59.0,51.8,29.75,SSE,153,0.0,2.0,77,0.00,,---,0.00,VWS V13.00,2013-06-07 10:22:00,
2013-06-07 03:27:00,59.0,51.8,29.75,SSE,153,0.0,2.0,77,0.00,,---,0.00,VWS V13.00,2013-06-07 10:27:00,
2013-06-07 03:32:00,59.0,51.8,29.75,SSE,153,0.0,0.0,77,0.00,,---,0.00,VWS V13.00,2013-06-07 10:32:00,
2013-06-07 03:37:00,59.0,51.8,29.75,SSE,153,1.0,1.0,77,0.00,,---,0.00,VWS V13.00,2013-06-07 10:37:00,
2013-06-07 03:42:00,59.0,51.8,29.75,SSE,152,0.0,1.0,77,0.00,,---,0.00,VWS V13.00,2013-06-07 10:42:00,
2013-06-07 03:47:00,59.0,51.8,29.75,SSE,152,0.0,1.0,77,0.00,,---,0.00,VWS V13.00,2013-06-07 10:47:00,
2013-06-07 03:52:00,59.0,51.8,29.75,SSE,152,0.0,1.0,77,0.00,,---,0.00,VWS V13.00,2013-06-07 10:52:00,
2013-06-07 03:57:00,59.0,51.8,29.75,ESE,117,1.0,3.0,77,0.00,,---,0.00,VWS V13.00,2013-06-07 10:57:00,
2013-06-07 04:02:00,59.1,51.9,29.74,ESE,117,0.0,1.0,77,0.00,,---,0.00,VWS V13.00,2013-06-07 11:02:00,
2013-06-07 04:07:00,59.3,51.8,29.75,ESE,117,0.0,2.0,76,0.00,,---,0.00,VWS V13.00,2013-06-07 11:07:00,
2013-06-07 04:12:00,59.5,51.6,29.75,ESE,119,1.0,4.0,75,0.00,,---,0.00,VWS V13.00,2013-06-07 11:12:00,
2013-06-07 04:17:00,59.8,51.5,29.75,East,94,1.0,4.0,74,0.00,,---,0.00,VWS V13.00,2013-06-07 11:17:00,
2013-06-07 04:22:00,60.1,51.4,29.75,ESE,123,2.0,10.0,73,0.00,,---,0.00,VWS V13.00,2013-06-07 11:22:00,
2013-06-07 04:27:00,60.4,51.3,29.75,ESE,113,0.0,10.0,72,0.00,,---,0.00,VWS V13.00,2013-06-07 11:27:00,
2013-06-07 04:32:00,60.5,51.4,29.75,ESE,113,0.0,1.0,72,0.00,,---,0.00,VWS V13.00,2013-06-07 11:32:00,
2013-06-07 04:37:00,60.6,51.2,29.75,ESE,113,0.0,3.0,71,0.00,,---,0.00,VWS V13.00,2013-06-07 11:37:00,
2013-06-07 04:42:00,60.6,51.2,29.75,ESE,115,1.0,3.0,71,0.00,,---,0.00,VWS V13.00,2013-06-07 11:42:00,
2013-06-07 04:47:00,60.6,51.5,29.75,ESE,118,1.0,4.0,72,0.00,,---,0.00,VWS V13.00,2013-06-07 11:47:00,
2013-06-07 04:52:00,60.5,51.1,29.75,ESE,115,4.0,5.0,71,0.00,,---,0.00,VWS V13.00,2013-06-07 11:52:00,
2013-06-07 04:57:00,60.5,51.1,29.75,ESE,118,0.0,7.0,71,0.00,,---,0.00,VWS V13.00,2013-06-07 11:57:00,
2013-06-07 05:02:00,60.5,50.7,29.76,SE,132,3.0,5.0,70,0.00,,---,0.00,VWS V13.00,2013-06-07 12:02:00,
2013-06-07 05:07:00,60.5,50.7,29.76,SE,144,2.0,8.0,70,0.00,,---,0.00,VWS V13.00,2013-06-07 12:07:00,
2013-06-07 05:12:00,60.6,50.8,29.77,ESE,121,4.0,10.0,70,0.00,,---,0.00,VWS V13.00,2013-06-07 12:12:00,
2013-06-07 05:17:00,60.6,50.8,29.77,SE,128,1.0,10.0,70,0.00,,---,0.00,VWS V13.00,2013-06-07 12:17:00,
2013-06-07 05:22:00,60.6,50.4,29.77,East,101,1.0,10.0,69,0.00,,---,0.00,VWS V13.00,2013-06-07 12:22:00,
2013-06-07 05:27:00,60.6,51.2,29.77,East,101,3.0,10.0,71,0.00,,---,0.00,VWS V13.00,2013-06-07 12:27:00,
2013-06-07 05:32:00,60.3,50.9,29.77,ESE,106,3.0,4.0,71,0.00,,---,0.00,VWS V13.00,2013-06-07 12:32:00,
2013-06-07 05:37:00,60.0,51.0,29.77,East,98,2.0,4.0,72,0.00,,---,0.00,VWS V13.00,2013-06-07 12:37:00,
2013-06-07 05:42:00,59.7,51.0,29.77,ESE,118,1.0,5.0,73,0.00,,---,0.00,VWS V13.00,2013-06-07 12:42:00,
2013-06-07 05:47:00,59.5,50.8,29.78,ESE,111,1.0,7.0,73,0.00,,---,0.00,VWS V13.00,2013-06-07 12:47:00,
2013-06-07 05:52:00,59.3,50.7,29.78,East,98,2.0,7.0,73,0.00,,---,0.00,VWS V13.00,2013-06-07 12:52:00,
2013-06-07 05:57:00,59.2,50.9,29.78,East,90,0.0,7.0,74,0.00,,---,0.00,VWS V13.00,2013-06-07 12:57:00,
2013-06-07 06:02:00,59.1,50.5,29.78,East,96,3.0,7.0,73,0.00,,---,0.00,VWS V13.00,2013-06-07 13:02:00,
2013-06-07 06:07:00,59.3,50.3,29.78,SE,129,1.0,7.0,72,0.00,,---,0.00,VWS V13.00,2013-06-07 13:07:00,
2013-06-07 06:12:00,59.7,50.3,29.78,ESE,118,1.0,7.0,71,0.00,,---,0.00,VWS V13.00,2013-06-07 13:12:00,
2013-06-07 06:17:00,60.0,50.6,29.77,East,99,0.0,7.0,71,0.00,,---,0.00,VWS V13.00,2013-06-07 13:17:00,
2013-06-07 06:22:00,60.4,50.6,29.77,East,92,2.0,7.0,70,0.00,,---,0.00,VWS V13.00,2013-06-07 13:22:00,
2013-06-07 06:27:00,60.8,50.6,29.77,ESE,117,2.0,7.0,69,0.00,,---,0.00,VWS V13.00,2013-06-07 13:27:00,
2013-06-07 06:32:00,61.3,50.7,29.78,SE,125,5.0,7.0,68,0.00,,---,0.00,VWS V13.00,2013-06-07 13:32:00,
2013-06-07 06:37:00,61.5,50.0,29.78,East,94,1.0,10.0,66,0.00,,---,0.00,VWS V13.00,2013-06-07 13:37:00,
2013-06-07 06:42:00,61.7,50.2,29.77,ESE,103,1.0,10.0,66,0.00,,---,0.00,VWS V13.00,2013-06-07 13:42:00,
2013-06-07 06:47:00,61.7,49.8,29.77,East,96,4.0,10.0,65,0.00,,---,0.00,VWS V13.00,2013-06-07 13:47:00,
2013-06-07 06:52:00,61.8,50.3,29.77,ESE,111,2.0,10.0,66,0.00,,---,0.00,VWS V13.00,2013-06-07 13:52:00,
2013-06-07 06:57:00,62.2,50.3,29.77,East,93,4.0,10.0,65,0.00,,---,0.00,VWS V13.00,2013-06-07 13:57:00,
2013-06-07 07:02:00,62.6,50.3,29.77,ESE,111,4.0,7.0,64,0.00,,---,0.00,VWS V13.00,2013-06-07 14:02:00,
2013-06-07 07:07:00,63.0,49.8,29.77,SE,127,10.0,12.0,62,0.00,,---,0.00,VWS V13.00,2013-06-07 14:07:00,
2013-06-07 07:12:00,63.2,50.4,29.77,ESE,117,4.0,12.0,63,0.00,,---,0.00,VWS V13.00,2013-06-07 14:12:00,
2013-06-07 07:17:00,63.2,50.0,29.78,ESE,113,3.0,12.0,62,0.00,,---,0.00,VWS V13.00,2013-06-07 14:17:00,
2013-06-07 07:22:00,63.2,50.0,29.78,East,96,2.0,12.0,62,0.00,,---,0.00,VWS V13.00,2013-06-07 14:22:00,
2013-06-07 07:27:00,63.2,49.5,29.78,ESE,114,0.0,12.0,61,0.00,,---,0.00,VWS V13.00,2013-06-07 14:27:00,
2013-06-07 07:32:00,63.2,50.0,29.78,ESE,121,4.0,7.0,62,0.00,,---,0.00,VWS V13.00,2013-06-07 14:32:00,
2013-06-07 07:37:00,63.2,49.5,29.78,ESE,123,2.0,14.0,61,0.00,,---,0.00,VWS V13.00,2013-06-07 14:37:00,
2013-06-07 07:42:00,63.3,49.6,29.79,ESE,114,0.0,14.0,61,0.00,,---,0.00,VWS V13.00,2013-06-07 14:42:00,
2013-06-07 07:47:00,63.5,49.8,29.79,ESE,113,1.0,14.0,61,0.00,,---,0.00,VWS V13.00,2013-06-07 14:47:00,
2013-06-07 07:52:00,63.9,50.2,29.79,East,98,1.0,14.0,61,0.00,,---,0.00,VWS V13.00,2013-06-07 14:52:00,
2013-06-07 07:57:00,64.0,49.8,29.78,East,94,3.0,14.0,60,0.00,,---,0.00,VWS V13.00,2013-06-07 14:57:00,
2013-06-07 08:02:00,64.0,49.8,29.79,ESE,107,2.0,4.0,60,0.00,,---,0.00,VWS V13.00,2013-06-07 15:02:00,
2013-06-07 08:07:00,64.0,49.8,29.79,SE,136,0.0,5.0,60,0.00,,---,0.00,VWS V13.00,2013-06-07 15:07:00,
2013-06-07 08:12:00,64.1,50.4,29.79,East,94,3.0,5.0,61,0.00,,---,0.00,VWS V13.00,2013-06-07 15:12:00,
2013-06-07 08:17:00,64.3,50.6,29.79,ESE,111,0.0,5.0,61,0.00,,---,0.00,VWS V13.00,2013-06-07 15:17:00,
2013-06-07 08:22:00,64.7,50.5,29.79,SE,136,3.0,8.0,60,0.00,,---,0.00,VWS V13.00,2013-06-07 15:22:00,
2013-06-07 08:27:00,64.9,50.7,29.78,SSE,151,1.0,8.0,60,0.00,,---,0.00,VWS V13.00,2013-06-07 15:27:00,
2013-06-07 08:32:00,65.2,49.6,29.79,SE,129,2.0,9.0,57,0.00,,---,0.00,VWS V13.00,2013-06-07 15:32:00,
2013-06-07 08:37:00,65.4,48.8,29.79,SE,146,7.0,13.0,55,0.00,,---,0.00,VWS V13.00,2013-06-07 15:37:00,
2013-06-07 08:43:00,65.5,48.9,29.80,SSE,153,2.0,13.0,55,0.00,,---,0.00,VWS V13.00,2013-06-07 15:43:00,
2013-06-07 08:47:00,65.7,48.6,29.80,East,96,4.0,13.0,54,0.00,,---,0.00,VWS V13.00,2013-06-07 15:47:00,
2013-06-07 08:52:00,65.8,48.7,29.79,ESE,115,2.0,13.0,54,0.00,,---,0.00,VWS V13.00,2013-06-07 15:52:00,
2013-06-07 08:57:00,65.9,48.8,29.79,SE,124,3.0,13.0,54,0.00,,---,0.00,VWS V13.00,2013-06-07 15:57:00,
2013-06-07 09:02:00,65.9,49.3,29.81,SE,141,3.0,9.0,55,0.00,,---,0.00,VWS V13.00,2013-06-07 16:02:00,
2013-06-07 09:07:00,66.1,49.5,29.81,SSE,167,7.0,9.0,55,0.00,,---,0.00,VWS V13.00,2013-06-07 16:07:00,
2013-06-07 09:12:00,66.3,49.7,29.81,SSE,157,0.0,9.0,55,0.00,,---,0.00,VWS V13.00,2013-06-07 16:12:00,
2013-06-07 09:17:00,66.6,50.0,29.80,ESE,115,1.0,9.0,55,0.00,,---,0.00,VWS V13.00,2013-06-07 16:17:00,
2013-06-07 09:22:00,66.8,49.6,29.80,SE,137,1.0,9.0,54,0.00,,---,0.00,VWS V13.00,2013-06-07 16:22:00,
2013-06-07 09:27:00,67.0,49.8,29.80,SSE,153,5.0,9.0,54,0.00,,---,0.00,VWS V13.00,2013-06-07 16:27:00,
2013-06-07 09:32:00,67.3,49.1,29.80,SE,125,7.0,12.0,52,0.00,,---,0.00,VWS V13.00,2013-06-07 16:32:00,
2013-06-07 09:37:00,67.5,49.3,29.80,ESE,105,3.0,12.0,52,0.00,,---,0.00,VWS V13.00,2013-06-07 16:37:00,
2013-06-07 09:42:00,67.6,49.4,29.81,South,180,4.0,12.0,52,0.00,,---,0.00,VWS V13.00,2013-06-07 16:42:00,
2013-06-07 09:47:00,67.8,49.0,29.81,SE,140,6.0,12.0,51,0.00,,---,0.00,VWS V13.00,2013-06-07 16:47:00,
2013-06-07 09:52:00,68.0,48.7,29.80,SE,143,5.0,12.0,50,0.00,,---,0.00,VWS V13.00,2013-06-07 16:52:00,
2013-06-07 09:57:00,68.2,49.9,29.80,SE,134,6.0,12.0,52,0.00,,---,0.00,VWS V13.00,2013-06-07 16:57:00,
2013-06-07 10:02:00,68.5,49.2,29.81,ESE,106,2.0,9.0,50,0.00,,---,0.00,VWS V13.00,2013-06-07 17:02:00,
2013-06-07 10:07:00,68.6,49.8,29.80,SE,127,4.0,9.0,51,0.00,,---,0.00,VWS V13.00,2013-06-07 17:07:00,
2013-06-07 10:12:00,69.0,51.2,29.80,SE,126,5.0,9.0,53,0.00,,---,0.00,VWS V13.00,2013-06-07 17:12:00,
2013-06-07 10:17:00,69.3,49.3,29.81,SE,127,4.0,13.0,49,0.00,,---,0.00,VWS V13.00,2013-06-07 17:17:00,
2013-06-07 10:22:00,69.6,50.2,29.81,SE,139,4.0,13.0,50,0.00,,---,0.00,VWS V13.00,2013-06-07 17:22:00,
2013-06-07 10:27:00,70.0,49.4,29.81,SSE,155,5.0,13.0,48,0.00,,---,0.00,VWS V13.00,2013-06-07 17:27:00,
2013-06-07 10:32:00,70.4,49.8,29.81,SSE,156,5.0,10.0,48,0.00,,---,0.00,VWS V13.00,2013-06-07 17:32:00,
2013-06-07 10:37:00,70.8,49.0,29.81,SSW,202,6.0,10.0,46,0.00,,---,0.00,VWS V13.00,2013-06-07 17:37:00,
2013-06-07 10:42:00,71.2,50.0,29.81,SSE,164,5.0,12.0,47,0.00,,---,0.00,VWS V13.00,2013-06-07 17:42:00,
2013-06-07 10:47:00,71.5,49.1,29.80,SSE,160,0.0,12.0,45,0.00,,---,0.00,VWS V13.00,2013-06-07 17:47:00,
2013-06-07 10:52:00,71.7,49.2,29.81,SSW,201,4.0,12.0,45,0.00,,---,0.00,VWS V13.00,2013-06-07 17:52:00,
2013-06-07 10:58:00,71.9,48.2,29.80,South,188,1.0,13.0,43,0.00,,---,0.00,VWS V13.00,2013-06-07 17:58:00,
2013-06-07 11:03:00,72.2,50.3,29.81,SSW,192,4.0,6.0,46,0.00,,---,0.00,VWS V13.00,2013-06-07 18:03:00,
2013-06-07 11:08:00,72.8,50.2,29.81,SSE,162,4.0,8.0,45,0.00,,---,0.00,VWS V13.00,2013-06-07 18:08:00,
2013-06-07 11:14:00,73.2,50.0,29.81,SSW,200,5.0,12.0,44,0.00,,---,0.00,VWS V13.00,2013-06-07 18:14:00,
2013-06-07 11:19:00,73.5,50.3,29.80,ESE,108,4.0,12.0,44,0.00,,---,0.00,VWS V13.00,2013-06-07 18:19:00,
2013-06-07 11:24:00,73.9,48.7,29.81,ESE,112,6.0,12.0,41,0.00,,---,0.00,VWS V13.00,2013-06-07 18:24:00,
2013-06-07 11:30:00,74.3,48.4,29.80,SSE,165,3.0,10.0,40,0.00,,---,0.00,VWS V13.00,2013-06-07 18:30:00,
2013-06-07 11:35:00,74.7,49.5,29.79,SW,215,2.0,10.0,41,0.00,,---,0.00,VWS V13.00,2013-06-07 18:35:00,
2013-06-07 11:41:00,75.6,49.6,29.79,SSE,164,9.0,12.0,40,0.00,,---,0.00,VWS V13.00,2013-06-07 18:41:00,
2013-06-07 11:46:00,76.3,48.1,29.79,SE,125,9.0,17.0,37,0.00,,---,0.00,VWS V13.00,2013-06-07 18:46:00,
2013-06-07 11:52:00,76.3,49.5,29.79,SE,141,10.0,17.0,39,0.00,,---,0.00,VWS V13.00,2013-06-07 18:52:00,
2013-06-07 11:57:00,76.5,46.8,29.78,SE,144,5.0,17.0,35,0.00,,---,0.00,VWS V13.00,2013-06-07 18:57:00,
2013-06-07 12:03:00,77.2,45.9,29.79,SE,143,6.0,17.0,33,0.00,,---,0.00,VWS V13.00,2013-06-07 19:03:00,
2013-06-07 12:08:00,77.9,48.1,29.78,SSE,152,4.0,17.0,35,0.00,,---,0.00,VWS V13.00,2013-06-07 19:08:00,
2013-06-07 12:13:00,78.7,48.8,29.78,South,188,4.0,17.0,35,0.00,,---,0.00,VWS V13.00,2013-06-07 19:13:00,
2013-06-07 12:18:00,78.7,48.0,29.78,SSE,161,4.0,17.0,34,0.00,,---,0.00,VWS V13.00,2013-06-07 19:18:00,
2013-06-07 12:23:00,78.7,48.0,29.77,SE,134,12.0,17.0,34,0.00,,---,0.00,VWS V13.00,2013-06-07 19:23:00,
2013-06-07 12:29:00,79.3,48.5,29.78,SSE,165,1.0,17.0,34,0.00,,---,0.00,VWS V13.00,2013-06-07 19:29:00,
2013-06-07 12:34:00,80.2,50.1,29.78,SSE,164,6.0,13.0,35,0.00,,---,0.00,VWS V13.00,2013-06-07 19:34:00,
2013-06-07 12:39:00,79.9,47.4,29.77,South,190,10.0,13.0,32,0.00,,---,0.00,VWS V13.00,2013-06-07 19:39:00,
2013-06-07 12:44:00,78.6,44.6,29.77,SSE,166,10.0,22.0,30,0.00,,---,0.00,VWS V13.00,2013-06-07 19:44:00,
2013-06-07 12:49:00,78.0,45.8,29.77,SSE,161,3.0,22.0,32,0.00,,---,0.00,VWS V13.00,2013-06-07 19:49:00,
2013-06-07 12:55:00,78.9,45.7,29.77,SSE,159,5.0,22.0,31,0.00,,---,0.00,VWS V13.00,2013-06-07 19:55:00,
2013-06-07 13:00:00,78.8,45.6,29.77,SE,139,9.0,14.0,31,0.00,,---,0.00,VWS V13.00,2013-06-07 20:00:00,
2013-06-07 13:05:00,78.9,46.6,29.77,SSE,152,5.0,16.0,32,0.00,,---,0.00,VWS V13.00,2013-06-07 20:05:00,
2013-06-07 13:10:00,79.5,48.7,29.76,SE,130,11.0,18.0,34,0.00,,---,0.00,VWS V13.00,2013-06-07 20:10:00,
2013-06-07 13:15:00,79.5,46.2,29.77,South,185,10.0,18.0,31,0.00,,---,0.00,VWS V13.00,2013-06-07 20:15:00,
2013-06-07 13:20:00,80.2,48.5,29.76,SW,226,9.0,19.0,33,0.00,,---,0.00,VWS V13.00,2013-06-07 20:20:00,
2013-06-07 13:25:00,79.7,48.1,29.76,SSE,159,14.0,19.0,33,0.00,,---,0.00,VWS V13.00,2013-06-07 20:25:00,
2013-06-07 13:30:00,78.9,50.4,29.76,SE,136,7.0,15.0,37,0.00,,---,0.00,VWS V13.00,2013-06-07 20:30:00,
2013-06-07 13:35:00,79.3,51.5,29.76,SSW,199,9.0,15.0,38,0.00,,---,0.00,VWS V13.00,2013-06-07 20:35:00,
2013-06-07 13:40:00,80.3,50.9,29.75,SSW,206,2.0,18.0,36,0.00,,---,0.00,VWS V13.00,2013-06-07 20:40:00,
2013-06-07 13:45:00,80.9,51.5,29.75,SSW,194,7.0,18.0,36,0.00,,---,0.00,VWS V13.00,2013-06-07 20:45:00,
2013-06-07 13:51:00,80.9,52.9,29.75,NE,49,4.0,21.0,38,0.00,,---,0.00,VWS V13.00,2013-06-07 20:51:00,
2013-06-07 13:57:00,80.8,51.4,29.75,SSE,161,8.0,23.0,36,0.00,,---,0.00,VWS V13.00,2013-06-07 20:57:00,
2013-06-07 14:02:00,80.5,51.9,29.75,SSE,148,4.0,22.0,37,0.00,,---,0.00,VWS V13.00,2013-06-07 21:02:00,
2013-06-07 14:07:00,80.4,52.5,29.75,SSW,194,6.0,22.0,38,0.00,,---,0.00,VWS V13.00,2013-06-07 21:07:00,
2013-06-07 14:12:00,80.6,52.7,29.74,South,170,3.0,22.0,38,0.00,,---,0.00,VWS V13.00,2013-06-07 21:12:00,
2013-06-07 14:18:00,80.8,51.4,29.75,South,188,11.0,22.0,36,0.00,,---,0.00,VWS V13.00,2013-06-07 21:18:00,
2013-06-07 14:24:00,80.3,52.4,29.75,SSE,158,6.0,22.0,38,0.00,,---,0.00,VWS V13.00,2013-06-07 21:24:00,
2013-06-07 14:29:00,80.0,52.1,29.75,SE,138,4.0,22.0,38,0.00,,---,0.00,VWS V13.00,2013-06-07 21:29:00,
2013-06-07 14:34:00,79.6,51.8,29.75,SSE,151,3.0,14.0,38,0.00,,---,0.00,VWS V13.00,2013-06-07 21:34:00,
2013-06-07 14:39:00,79.3,50.8,29.75,SSW,192,3.0,14.0,37,0.00,,---,0.00,VWS V13.00,2013-06-07 21:39:00,
2013-06-07 14:44:00,79.3,51.5,29.75,SSW,207,4.0,14.0,38,0.00,,---,0.00,VWS V13.00,2013-06-07 21:44:00,
2013-06-07 14:49:00,79.6,51.8,29.74,SSW,209,2.0,14.0,38,0.00,,---,0.00,VWS V13.00,2013-06-07 21:49:00,
2013-06-07 14:54:00,80.5,51.9,29.74,SSW,209,12.0,14.0,37,0.00,,---,0.00,VWS V13.00,2013-06-07 21:54:00,
2013-06-07 15:00:00,81.8,53.0,29.72,SSW,193,10.0,14.0,37,0.00,,---,0.00,VWS V13.00,2013-06-07 22:00:00,
2013-06-07 15:05:00,82.0,53.2,29.72,SSW,203,7.0,18.0,37,0.00,,---,0.00,VWS V13.00,2013-06-07 22:05:00,
2013-06-07 15:10:00,82.1,52.5,29.72,SSE,163,6.0,18.0,36,0.00,,---,0.00,VWS V13.00,2013-06-07 22:10:00,
2013-06-07 15:16:00,82.3,52.7,29.72,South,171,10.0,19.0,36,0.00,,---,0.00,VWS V13.00,2013-06-07 22:16:00,
2013-06-07 15:21:00,82.3,51.2,29.73,SSW,195,14.0,19.0,34,0.00,,---,0.00,VWS V13.00,2013-06-07 22:21:00,
2013-06-07 15:27:00,81.7,51.4,29.72,SSE,153,11.0,19.0,35,0.00,,---,0.00,VWS V13.00,2013-06-07 22:27:00,
2013-06-07 15:32:00,81.4,52.7,29.72,ESE,113,11.0,18.0,37,0.00,,---,0.00,VWS V13.00,2013-06-07 22:32:00,
2013-06-07 15:37:00,81.3,52.6,29.72,SE,143,5.0,18.0,37,0.00,,---,0.00,VWS V13.00,2013-06-07 22:37:00,
2013-06-07 15:42:00,81.4,51.9,29.72,SSE,167,7.0,21.0,36,0.00,,---,0.00,VWS V13.00,2013-06-07 22:42:00,
2013-06-07 15:47:00,81.2,51.7,29.71,South,178,11.0,21.0,36,0.00,,---,0.00,VWS V13.00,2013-06-07 22:47:00,
2013-06-07 15:52:00,81.3,51.8,29.71,SSE,159,8.0,21.0,36,0.00,,---,0.00,VWS V13.00,2013-06-07 22:52:00,
2013-06-07 15:57:00,81.2,51.7,29.71,SSE,150,9.0,21.0,36,0.00,,---,0.00,VWS V13.00,2013-06-07 22:57:00,
2013-06-07 16:02:00,80.9,52.2,29.71,SE,144,12.0,14.0,37,0.00,,---,0.00,VWS V13.00,2013-06-07 23:02:00,
2013-06-07 16:07:00,80.4,51.8,29.71,SSE,153,11.0,15.0,37,0.00,,---,0.00,VWS V13.00,2013-06-07 23:07:00,
2013-06-07 16:12:00,80.1,51.5,29.71,SW,217,2.0,15.0,37,0.00,,---,0.00,VWS V13.00,2013-06-07 23:12:00,
2013-06-07 16:18:00,80.0,52.1,29.71,SSW,194,13.0,18.0,38,0.00,,---,0.00,VWS V13.00,2013-06-07 23:18:00,
2013-06-07 16:23:00,79.8,52.0,29.70,South,178,5.0,22.0,38,0.00,,---,0.00,VWS V13.00,2013-06-07 23:23:00,
2013-06-07 16:28:00,80.1,52.2,29.70,South,182,13.0,22.0,38,0.00,,---,0.00,VWS V13.00,2013-06-07 23:28:00,
2013-06-07 16:33:00,80.3,52.4,29.70,South,180,6.0,15.0,38,0.00,,---,0.00,VWS V13.00,2013-06-07 23:33:00,
2013-06-07 16:39:00,81.1,53.1,29.69,South,173,2.0,15.0,38,0.00,,---,0.00,VWS V13.00,2013-06-07 23:39:00,
2013-06-07 16:44:00,81.9,52.3,29.69,SW,217,3.0,15.0,36,0.00,,---,0.00,VWS V13.00,2013-06-07 23:44:00,
2013-06-07 16:49:00,82.8,50.0,29.69,WSW,250,10.0,17.0,32,0.00,,---,0.00,VWS V13.00,2013-06-07 23:49:00,
2013-06-07 16:54:00,83.1,48.5,29.69,SW,229,5.0,24.0,30,0.00,,---,0.00,VWS V13.00,2013-06-07 23:54:00,
2013-06-07 16:59:00,83.0,48.4,29.70,SSE,165,7.0,15.0,30,0.00,,---,0.00,VWS V13.00,2013-06-07 23:59:00,
2013-06-07 17:04:00,82.9,48.3,29.70,SSE,165,9.0,19.0,30,0.00,,---,0.00,VWS V13.00,2013-06-08 00:04:00,
2013-06-07 17:10:00,82.7,46.3,29.70,SW,233,13.0,22.0,28,0.00,,---,0.00,VWS V13.00,2013-06-08 00:10:00,
2013-06-07 17:15:00,82.8,45.4,29.70,South,190,10.0,22.0,27,0.00,,---,0.00,VWS V13.00,2013-06-08 00:15:00,
2013-06-07 17:20:00,82.7,47.2,29.70,West,279,10.0,22.0,29,0.00,,---,0.00,VWS V13.00,2013-06-08 00:20:00,
2013-06-07 17:25:00,82.6,45.3,29.70,SSE,163,6.0,22.0,27,0.00,,---,0.00,VWS V13.00,2013-06-08 00:25:00,
2013-06-07 17:30:00,82.5,45.2,29.70,SSW,196,4.0,15.0,27,0.00,,---,0.00,VWS V13.00,2013-06-08 00:30:00,
2013-06-07 17:36:00,82.1,44.8,29.70,SSW,202,3.0,18.0,27,0.00,,---,0.00,VWS V13.00,2013-06-08 00:36:00,
2013-06-07 17:41:00,81.9,46.6,29.70,South,191,10.0,18.0,29,0.00,,---,0.00,VWS V13.00,2013-06-08 00:41:00,
2013-06-07 17:47:00,81.8,47.4,29.70,East,101,3.0,19.0,30,0.00,,---,0.00,VWS V13.00,2013-06-08 00:47:00,
2013-06-07 17:53:00,81.7,47.3,29.70,SSW,213,6.0,19.0,30,0.00,,---,0.00,VWS V13.00,2013-06-08 00:53:00,
2013-06-07 17:58:00,81.5,48.8,29.70,SSW,192,10.0,19.0,32,0.00,,---,0.00,VWS V13.00,2013-06-08 00:58:00,
2013-06-07 18:03:00,81.4,47.9,29.69,WSW,253,6.0,16.0,31,0.00,,---,0.00,VWS V13.00,2013-06-08 01:03:00,
2013-06-07 18:08:00,81.3,47.8,29.69,SSE,152,5.0,19.0,31,0.00,,---,0.00,VWS V13.00,2013-06-08 01:08:00,
2013-06-07 18:14:00,81.2,47.7,29.69,South,185,0.0,19.0,31,0.00,,---,0.00,VWS V13.00,2013-06-08 01:14:00,
2013-06-07 18:19:00,81.3,48.7,29.69,South,188,13.0,20.0,32,0.00,,---,0.00,VWS V13.00,2013-06-08 01:19:00,
2013-06-07 18:24:00,81.2,48.6,29.69,SSE,156,9.0,20.0,32,0.00,,---,0.00,VWS V13.00,2013-06-08 01:24:00,
2013-06-07 18:29:00,80.9,49.1,29.69,South,180,4.0,15.0,33,0.00,,---,0.00,VWS V13.00,2013-06-08 01:29:00,
2013-06-07 18:34:00,80.3,48.6,29.70,South,187,12.0,16.0,33,0.00,,---,0.00,VWS V13.00,2013-06-08 01:34:00,
2013-06-07 18:39:00,79.8,49.7,29.70,SSW,196,3.0,21.0,35,0.00,,---,0.00,VWS V13.00,2013-06-08 01:39:00,
2013-06-07 18:45:00,79.6,48.8,29.69,SSE,160,4.0,21.0,34,0.00,,---,0.00,VWS V13.00,2013-06-08 01:45:00,
2013-06-07 18:50:00,79.4,49.4,29.70,WSW,240,11.0,21.0,35,0.00,,---,0.00,VWS V13.00,2013-06-08 01:50:00,
2013-06-07 18:55:00,78.8,48.9,29.70,SSE,168,5.0,21.0,35,0.00,,---,0.00,VWS V13.00,2013-06-08 01:55:00,
2013-06-07 19:00:00,78.6,50.2,29.70,South,175,10.0,10.0,37,0.00,,---,0.00,VWS V13.00,2013-06-08 02:00:00,
2013-06-07 19:05:00,78.4,49.3,29.70,SSE,155,6.0,15.0,36,0.00,,---,0.00,VWS V13.00,2013-06-08 02:05:00,
2013-06-07 19:10:00,78.4,50.0,29.71,WSW,246,9.0,15.0,37,0.00,,---,0.00,VWS V13.00,2013-06-08 02:10:00,
2013-06-07 19:15:00,78.5,49.3,29.71,SW,215,1.0,15.0,36,0.00,,---,0.00,VWS V13.00,2013-06-08 02:15:00,
2013-06-07 19:20:00,78.6,49.4,29.70,SW,215,0.0,15.0,36,0.00,,---,0.00,VWS V13.00,2013-06-08 02:20:00,
2013-06-07 19:25:00,78.7,48.8,29.71,SW,214,0.0,15.0,35,0.00,,---,0.00,VWS V13.00,2013-06-08 02:25:00,
2013-06-07 19:30:00,78.7,48.8,29.70,WSW,244,12.0,12.0,35,0.00,,---,0.00,VWS V13.00,2013-06-08 02:30:00,
2013-06-07 19:35:00,78.4,48.5,29.71,WSW,244,8.0,13.0,35,0.00,,---,0.00,VWS V13.00,2013-06-08 02:35:00,
2013-06-07 19:40:00,78.1,47.5,29.72,SW,218,8.0,15.0,34,0.00,,---,0.00,VWS V13.00,2013-06-08 02:40:00,
2013-06-07 19:46:00,77.6,47.0,29.72,West,263,11.0,15.0,34,0.00,,---,0.00,VWS V13.00,2013-06-08 02:46:00,
2013-06-07 19:51:00,77.2,47.5,29.72,SW,225,2.0,20.0,35,0.00,,---,0.00,VWS V13.00,2013-06-08 02:51:00,
2013-06-07 19:56:00,76.9,47.2,29.72,SSE,152,5.0,20.0,35,0.00,,---,0.00,VWS V13.00,2013-06-08 02:56:00,
2013-06-07 20:01:00,76.5,46.8,29.71,SSW,205,5.0,11.0,35,0.00,,---,0.00,VWS V13.00,2013-06-08 03:01:00,
2013-06-07 20:06:00,76.1,46.5,29.72,SW,218,5.0,18.0,35,0.00,,---,0.00,VWS V13.00,2013-06-08 03:06:00,
2013-06-07 20:12:00,75.8,47.7,29.72,South,171,1.0,18.0,37,0.00,,---,0.00,VWS V13.00,2013-06-08 03:12:00,
2013-06-07 20:17:00,75.4,46.6,29.72,South,182,12.0,18.0,36,0.00,,---,0.00,VWS V13.00,2013-06-08 03:17:00,
2013-06-07 20:22:00,75.0,46.3,29.72,SSW,211,4.0,18.0,36,0.00,,---,0.00,VWS V13.00,2013-06-08 03:22:00,
2013-06-07 20:27:00,74.6,45.9,29.72,SW,215,6.0,18.0,36,0.00,,---,0.00,VWS V13.00,2013-06-08 03:27:00,
2013-06-07 20:33:00,74.2,45.6,29.71,SSE,163,6.0,19.0,36,0.00,,---,0.00,VWS V13.00,2013-06-08 03:33:00,
2013-06-07 20:38:00,73.8,45.9,29.72,WSW,238,11.0,19.0,37,0.00,,---,0.00,VWS V13.00,2013-06-08 03:38:00,
2013-06-07 20:44:00,73.5,45.7,29.72,SW,221,7.0,19.0,37,0.00,,---,0.00,VWS V13.00,2013-06-08 03:44:00,
2013-06-07 20:49:00,73.1,45.3,29.72,SW,229,2.0,19.0,37,0.00,,---,0.00,VWS V13.00,2013-06-08 03:49:00,
2013-06-07 20:54:00,72.8,45.0,29.72,WSW,244,3.0,19.0,37,0.00,,---,0.00,VWS V13.00,2013-06-08 03:54:00,
2013-06-07 20:59:00,72.5,44.8,29.72,South,186,6.0,10.0,37,0.00,,---,0.00,VWS V13.00,2013-06-08 03:59:00,
2013-06-07 21:01:00,72.4,45.4,29.72,SE,140,5.0,15.0,38,0.00,,---,0.00,VWS V13.00,2013-06-08 04:01:00,
2013-06-07 21:02:00,72.3,44.6,29.72,SSW,208,7.0,24.0,37,0.00,,---,0.00,VWS V13.00,2013-06-08 04:02:00,
2013-06-07 21:07:00,72.1,44.4,29.73,WSW,248,9.0,24.0,37,0.00,,---,0.00,VWS V13.00,2013-06-08 04:07:00,
2013-06-07 21:12:00,71.9,44.2,29.73,South,169,7.0,24.0,37,0.00,,---,0.00,VWS V13.00,2013-06-08 04:12:00,
2013-06-07 21:17:00,71.8,43.4,29.74,South,178,6.0,24.0,36,0.00,,---,0.00,VWS V13.00,2013-06-08 04:17:00,
2013-06-07 21:22:00,71.6,42.5,29.74,South,172,10.0,24.0,35,0.00,,---,0.00,VWS V13.00,2013-06-08 04:22:00,
2013-06-07 21:27:00,71.6,41.8,29.74,SSE,162,3.0,24.0,34,0.00,,---,0.00,VWS V13.00,2013-06-08 04:27:00,
2013-06-07 21:32:00,71.6,40.2,29.75,SSW,194,2.0,11.0,32,0.00,,---,0.00,VWS V13.00,2013-06-08 04:32:00,
2013-06-07 21:37:00,71.4,40.0,29.76,SSE,153,5.0,13.0,32,0.00,,---,0.00,VWS V13.00,2013-06-08 04:37:00,
2013-06-07 21:42:00,71.3,40.7,29.75,South,170,0.0,13.0,33,0.00,,---,0.00,VWS V13.00,2013-06-08 04:42:00,
2013-06-07 21:47:00,71.0,42.0,29.76,South,169,0.0,13.0,35,0.00,,---,0.00,VWS V13.00,2013-06-08 04:47:00,
2013-06-07 21:52:00,70.6,41.7,29.76,SSE,152,7.0,13.0,35,0.00,,---,0.00,VWS V13.00,2013-06-08 04:52:00,
2013-06-07 21:57:00,70.3,41.4,29.76,SSE,167,2.0,13.0,35,0.00,,---,0.00,VWS V13.00,2013-06-08 04:57:00,
2013-06-07 22:02:00,69.9,41.8,29.75,South,180,3.0,6.0,36,0.00,,---,0.00,VWS V13.00,2013-06-08 05:02:00,
2013-06-07 22:07:00,69.5,41.4,29.75,SSE,161,3.0,8.0,36,0.00,,---,0.00,VWS V13.00,2013-06-08 05:07:00,
2013-06-07 22:12:00,69.2,41.1,29.75,South,175,2.0,8.0,36,0.00,,---,0.00,VWS V13.00,2013-06-08 05:12:00,
2013-06-07 22:17:00,68.9,39.4,29.76,SW,218,6.0,12.0,34,0.00,,---,0.00,VWS V13.00,2013-06-08 05:17:00,
2013-06-07 22:22:00,68.7,39.2,29.75,SE,139,5.0,12.0,34,0.00,,---,0.00,VWS V13.00,2013-06-08 05:22:00,
2013-06-07 22:27:00,68.6,38.4,29.75,WSW,242,13.0,13.0,33,0.00,,---,0.00,VWS V13.00,2013-06-08 05:27:00,
2013-06-07 22:32:00,68.6,37.6,29.76,West,259,4.0,7.0,32,0.00,,---,0.00,VWS V13.00,2013-06-08 05:32:00,
2013-06-07 22:37:00,68.5,36.7,29.76,South,179,1.0,10.0,31,0.00,,---,0.00,VWS V13.00,2013-06-08 05:37:00,
2013-06-07 22:42:00,68.5,35.9,29.76,SSW,198,3.0,10.0,30,0.00,,---,0.00,VWS V13.00,2013-06-08 05:42:00,
2013-06-07 22:47:00,68.4,35.8,29.76,SSE,158,3.0,10.0,30,0.00,,---,0.00,VWS V13.00,2013-06-08 05:47:00,
2013-06-07 22:52:00,68.2,36.4,29.76,WSW,245,5.0,10.0,31,0.00,,---,0.00,VWS V13.00,2013-06-08 05:52:00,
2013-06-07 22:57:00,68.0,36.3,29.76,SSW,192,2.0,10.0,31,0.00,,---,0.00,VWS V13.00,2013-06-08 05:57:00,
2013-06-07 23:02:00,67.9,35.3,29.76,SSW,192,0.0,4.0,30,0.00,,---,0.00,VWS V13.00,2013-06-08 06:02:00,
2013-06-07 23:07:00,67.6,35.1,29.76,SSW,206,1.0,9.0,30,0.00,,---,0.00,VWS V13.00,2013-06-08 06:07:00,
2013-06-07 23:12:00,67.5,34.2,29.76,WSW,238,2.0,9.0,29,0.00,,---,0.00,VWS V13.00,2013-06-08 06:12:00,
2013-06-07 23:17:00,67.3,34.0,29.77,WSW,253,0.0,9.0,29,0.00,,---,0.00,VWS V13.00,2013-06-08 06:17:00,
2013-06-07 23:22:00,67.1,33.8,29.76,South,186,0.0,9.0,29,0.00,,---,0.00,VWS V13.00,2013-06-08 06:22:00,
2013-06-07 23:27:00,66.9,33.6,29.76,South,178,2.0,9.0,29,0.00,,---,0.00,VWS V13.00,2013-06-08 06:27:00,
2013-06-07 23:32:00,66.8,34.4,29.77,SSW,200,4.0,5.0,30,0.00,,---,0.00,VWS V13.00,2013-06-08 06:32:00,
2013-06-07 23:37:00,66.5,34.1,29.77,SSE,163,0.0,5.0,30,0.00,,---,0.00,VWS V13.00,2013-06-08 06:37:00,
2013-06-07 23:42:00,66.1,39.1,29.78,SSE,163,0.0,5.0,37,0.00,,---,0.00,VWS V13.00,2013-06-08 06:42:00,
2013-06-07 23:47:00,65.6,40.0,29.78,NNE,17,4.0,5.0,39,0.00,,---,0.00,VWS V13.00,2013-06-08 06:47:00,
2013-06-07 23:52:00,64.9,40.7,29.79,NNE,28,0.0,8.0,41,0.00,,---,0.00,VWS V13.00,2013-06-08 06:52:00,
2013-06-07 23:57:00,64.3,37.5,29.79,NNE,28,0.0,8.0,37,0.00,,---,0.00,VWS V13.00,2013-06-08 06:57:00,